When you browse on this site, cookies collect data to enhance your experience and personalize the content and advertising you see.
Visit our Privacy Policy to learn more. By continuing to use the site, you agree to this use of cookies and data.
  • In Portugal
  • List of Countries
  • For 7 days
  • Water Temperature
  • Weather Map
  • Weather Widgets
  • user-avatar
    Login

    Hourly Weather Perhlyay

    Today, 31 May, Sunday

    Time Temperature Precipitation Wind Pressure Humidity
    00:00 +17°C° 0.3 mm 3 mps 738 mmHg 95%
    01:00 +16°C° 0.1 mm 3 mps 737 mmHg 95%
    02:00 +14°C° 0.1 mm 4 mps 737 mmHg 95%
    03:00 +14°C° 0 mm 4 mps 737 mmHg 96%
    04:00 +14°C° 0.1 mm 4 mps 737 mmHg 94%
    05:00 +14°C° 0.1 mm 4 mps 737 mmHg 93%
    06:00 +14°C° 0.1 mm 5 mps 736 mmHg 92%
    07:00 +15°C° 0 mm 5 mps 736 mmHg 88%
    08:00 +16°C° 0 mm 5 mps 736 mmHg 83%
    09:00 +18°C° 0 mm 4 mps 736 mmHg 78%
    10:00 +19°C° 0.4 mm 5 mps 736 mmHg 76%
    11:00 +19°C° 0.4 mm 6 mps 736 mmHg 74%
    12:00 +20°C° 0.4 mm 6 mps 735 mmHg 72%
    13:00 +19°C° 0.7 mm 6 mps 735 mmHg 73%
    14:00 +19°C° 0.7 mm 6 mps 735 mmHg 73%
    15:00 +19°C° 0 mm 6 mps 736 mmHg 73%
    16:00 +19°C° 0.6 mm 6 mps 735 mmHg 76%
    17:00 +17°C° 0.6 mm 5 mps 735 mmHg 79%
    18:00 +16°C° 0.6 mm 5 mps 734 mmHg 82%
    19:00 +15°C° 0.6 mm 5 mps 735 mmHg 85%
    20:00 +14°C° 0.6 mm 4 mps 735 mmHg 88%
    21:00 +13°C° 0.6 mm 4 mps 735 mmHg 91%
    22:00 +12°C° 0 mm 4 mps 735 mmHg 92%
    23:00 +12°C° 0 mm 4 mps 735 mmHg 93%

    Tomorrow, 1 June, Monday

    Time Temperature Precipitation Wind Pressure Humidity
    00:00 +12°C° 0 mm 4 mps 735 mmHg 94%
    01:00 +11°C° 0 mm 4 mps 735 mmHg 95%
    02:00 +11°C° 0 mm 4 mps 736 mmHg 95%
    03:00 +11°C° 0 mm 4 mps 736 mmHg 96%
    04:00 +11°C° 0 mm 4 mps 736 mmHg 95%
    05:00 +11°C° 0 mm 4 mps 736 mmHg 94%
    06:00 +12°C° 0 mm 4 mps 736 mmHg 93%
    07:00 +12°C° 0 mm 4 mps 737 mmHg 91%
    08:00 +13°C° 0 mm 4 mps 737 mmHg 89%
    09:00 +13°C° 0 mm 3 mps 738 mmHg 87%
    10:00 +16°C° 0.1 mm 3 mps 738 mmHg 83%
    11:00 +17°C° 0.1 mm 3 mps 738 mmHg 79%
    12:00 +18°C° 0.1 mm 3 mps 739 mmHg 75%
    13:00 +18°C° 0.8 mm 3 mps 739 mmHg 74%
    14:00 +18°C° 0.8 mm 2 mps 739 mmHg 74%
    15:00 +19°C° 0.8 mm 2 mps 740 mmHg 73%
    16:00 +18°C° 1.2 mm 2 mps 740 mmHg 77%
    17:00 +17°C° 1.2 mm 3 mps 739 mmHg 81%
    18:00 +17°C° 1.2 mm 3 mps 739 mmHg 85%
    19:00 +16°C° 0.2 mm 3 mps 740 mmHg 88%
    20:00 +14°C° 0.2 mm 3 mps 740 mmHg 91%
    21:00 +13°C° 0.2 mm 4 mps 740 mmHg 94%
    22:00 +12°C° 0 mm 4 mps 740 mmHg 95%
    23:00 +12°C° 0 mm 4 mps 740 mmHg 96%

    Day after tomorrow, 2 June, Tuesday

    Time Temperature Precipitation Wind Pressure Humidity
    00:00 +11°C° 0 mm 4 mps 740 mmHg 97%
    01:00 +11°C° 0 mm 4 mps 740 mmHg 97%
    02:00 +11°C° 0 mm 4 mps 740 mmHg 96%
    03:00 +11°C° 0 mm 4 mps 740 mmHg 96%
    04:00 +11°C° 0 mm 4 mps 740 mmHg 96%
    05:00 +11°C° 0 mm 4 mps 740 mmHg 96%
    06:00 +10°C° 0 mm 5 mps 740 mmHg 95%
    07:00 +12°C° 0.1 mm 4 mps 740 mmHg 95%
    08:00 +12°C° 0.1 mm 4 mps 741 mmHg 94%
    09:00 +13°C° 0.1 mm 3 mps 741 mmHg 93%
    10:00 +13°C° 0.4 mm 3 mps 741 mmHg 93%
    11:00 +14°C° 0.4 mm 3 mps 741 mmHg 93%
    12:00 +14°C° 0.4 mm 3 mps 741 mmHg 93%
    13:00 +14°C° 1 mm 3 mps 741 mmHg 93%
    14:00 +14°C° 1 mm 3 mps 741 mmHg 94%
    15:00 +14°C° 1 mm 3 mps 741 mmHg 94%
    16:00 +14°C° 0.1 mm 4 mps 740 mmHg 93%
    17:00 +14°C° 0.1 mm 4 mps 740 mmHg 91%
    18:00 +15°C° 0.1 mm 4 mps 740 mmHg 90%
    19:00 +14°C° 0 mm 4 mps 740 mmHg 92%
    20:00 +13°C° 0 mm 4 mps 740 mmHg 94%
    21:00 +12°C° 0 mm 4 mps 740 mmHg 97%
    22:00 +12°C° 0.1 mm 4 mps 740 mmHg 97%
    23:00 +12°C° 0.1 mm 4 mps 740 mmHg 97%

    3 June, Wednesday

    Time Temperature Precipitation Wind Pressure Humidity
    00:00 +12°C° 0.1 mm 4 mps 740 mmHg 97%
    01:00 +12°C° 0.2 mm 4 mps 740 mmHg 97%
    02:00 +12°C° 0.2 mm 4 mps 740 mmHg 97%
    03:00 +12°C° 0.2 mm 3 mps 740 mmHg 97%
    04:00 +12°C° 0 mm 4 mps 740 mmHg 96%
    05:00 +13°C° 0 mm 4 mps 740 mmHg 95%
    06:00 +13°C° 0 mm 4 mps 740 mmHg 95%
    07:00 +13°C° 0 mm 5 mps 740 mmHg 94%
    08:00 +14°C° 0 mm 5 mps 740 mmHg 93%
    09:00 +14°C° 0 mm 5 mps 740 mmHg 92%
    10:00 +15°C° 0 mm 5 mps 740 mmHg 90%
    11:00 +16°C° 0 mm 6 mps 740 mmHg 88%
    12:00 +16°C° 0 mm 6 mps 740 mmHg 87%
    13:00 +17°C° 0 mm 6 mps 740 mmHg 85%
    14:00 +19°C° 0 mm 6 mps 740 mmHg 84%
    15:00 +19°C° 0 mm 6 mps 740 mmHg 82%
    16:00 +19°C° 0.7 mm 6 mps 740 mmHg 85%
    17:00 +17°C° 0.7 mm 6 mps 740 mmHg 87%
    18:00 +17°C° 0.7 mm 5 mps 739 mmHg 89%
    19:00 +16°C° 0.6 mm 6 mps 739 mmHg 91%
    20:00 +15°C° 0.6 mm 6 mps 739 mmHg 92%
    21:00 +15°C° 0.6 mm 6 mps 739 mmHg 94%
    22:00 +14°C° 1.2 mm 6 mps 739 mmHg 94%
    23:00 +14°C° 1.2 mm 5 mps 739 mmHg 94%

    4 June, Thursday

    Time Temperature Precipitation Wind Pressure Humidity
    00:00 +13°C° 1.2 mm 5 mps 739 mmHg 95%
    01:00 +13°C° 4.5 mm 6 mps 739 mmHg 95%
    02:00 +12°C° 4.5 mm 7 mps 739 mmHg 95%
    03:00 +12°C° 4.5 mm 8 mps 739 mmHg 95%
    04:00 +12°C° 1.7 mm 7 mps 739 mmHg 95%
    05:00 +12°C° 1.7 mm 7 mps 739 mmHg 95%
    06:00 +11°C° 1.7 mm 7 mps 739 mmHg 95%
    07:00 +11°C° 2.8 mm 7 mps 739 mmHg 95%
    08:00 +11°C° 2.8 mm 7 mps 739 mmHg 95%
    09:00 +11°C° 2.8 mm 7 mps 739 mmHg 95%
    10:00 +11°C° 1.8 mm 7 mps 739 mmHg 95%
    11:00 +11°C° 1.8 mm 7 mps 739 mmHg 95%
    12:00 +11°C° 1.8 mm 7 mps 739 mmHg 95%
    13:00 +13°C° 1.6 mm 6 mps 739 mmHg 95%
    14:00 +13°C° 1.6 mm 6 mps 739 mmHg 95%
    15:00 +14°C° 1.6 mm 6 mps 739 mmHg 96%
    16:00 +14°C° 0.3 mm 6 mps 739 mmHg 95%
    17:00 +15°C° 0.3 mm 6 mps 739 mmHg 94%
    18:00 +15°C° 0.3 mm 6 mps 739 mmHg 92%
    19:00 +15°C° 0 mm 4 mps 739 mmHg 93%
    20:00 +14°C° 0 mm 3 mps 739 mmHg 94%
    21:00 +15°C° 0 mm 2 mps 739 mmHg 95%
    22:00 +15°C° 0 mm 2 mps 739 mmHg 95%
    23:00 +15°C° 0 mm 2 mps 739 mmHg 96%

    5 June, Friday

    Time Temperature Precipitation Wind Pressure Humidity
    00:00 +14°C° 0 mm 1 mps 738 mmHg 96%
    01:00 +14°C° 0 mm 1 mps 738 mmHg 96%
    02:00 +14°C° 0 mm 1 mps 738 mmHg 96%
    03:00 +14°C° 0 mm 1 mps 738 mmHg 96%
    04:00 +15°C° 0 mm 1 mps 739 mmHg 95%
    05:00 +15°C° 0 mm 1 mps 739 mmHg 95%
    06:00 +15°C° 0 mm 1 mps 739 mmHg 95%
    07:00 +16°C° 0.1 mm 1 mps 739 mmHg 92%
    08:00 +18°C° 0.1 mm 1 mps 739 mmHg 90%
    09:00 +19°C° 0.1 mm 1 mps 739 mmHg 87%
    10:00 +19°C° 0.6 mm 2 mps 739 mmHg 85%
    11:00 +20°C° 0.6 mm 2 mps 739 mmHg 83%
    12:00 +20°C° 0.6 mm 3 mps 739 mmHg 81%
    13:00 +20°C° 0.6 mm 3 mps 739 mmHg 80%
    14:00 +21°C° 0.6 mm 4 mps 739 mmHg 78%
    15:00 +21°C° 0.6 mm 4 mps 739 mmHg 77%
    16:00 +20°C° 0.4 mm 4 mps 739 mmHg 79%
    17:00 +20°C° 0.4 mm 3 mps 739 mmHg 81%
    18:00 +19°C° 0.4 mm 3 mps 739 mmHg 82%
    19:00 +18°C° 0.1 mm 3 mps 740 mmHg 84%
    20:00 +16°C° 0.1 mm 2 mps 740 mmHg 86%
    21:00 +15°C° 0.1 mm 2 mps 740 mmHg 88%
    22:00 +15°C° 0 mm 2 mps 740 mmHg 89%
    23:00 +14°C° 0 mm 2 mps 740 mmHg 90%
    Show more